Temperature
7 7 7 7 7 7 7 7 7 7 7 7 8 8 8 8 8 8 8 8 7 7 7 7 6 6 6 6 5 5 5 5 4 4 4 3 3 3 2 2 1 1 0
6 6 6 6 6 6 6 6 6 6 7 7 7 7 7 7 7 7 7 6 6 6 6 5 5 5 5 5 4 4 4 4 3 3 3 2 2 1 1 1 0 -0 -1
6 6 5 5 5 5 5 5 6 6 6 6 6 6 6 6 6 6 5 5 5 5 5 4 4 4 4 3 3 3 3 2 2 2 1 1 1 0 -0 -0 -1 -1 -1
5 5 5 5 5 5 5 5 5 5 5 5 5 4 4 4 4 4 4 4 4 4 4 3 3 3 2 2 2 2 1 1 1 1 0 -0 -0 -1 -1 -2 -2 -2 -2
4 4 4 4 4 4 4 4 4 3 4 3 3 3 3 3 3 3 3 3 3 3 2 2 2 1 1 1 0 0 -0 -0 -0 -1 -1 -2 -2 -2 -3 -3 -3 -3 -3
3 3 3 3 3 3 3 3 2 3 3 2 2 2 2 2 2 2 2 2 2 1 1 1 0 -0 -0 -1 -1 -1 -1 -1 -2 -2 -3 -3 -3 -4 -4 -4 -4 -4 -4
3 3 3 2 2 2 2 2 2 1 2 1 1 1 2 2 1 1 1 1 1 0 0 -0 -1 -1 -1 -1 -2 -2 -2 -3 -3 -3 -4 -4 -5 -5 -5 -5 -5 -5 -5
2 2 2 2 2 1 1 1 1 1 1 1 1 1 1 1 0 0 0 -0 -0 -1 -1 -1 -2 -2 -2 -3 -2 -3 -3 -4 -4 -5 -5 -5 -5 -6 -6 -6 -6 -6 -5
1 1 1 1 1 1 1 0 0 0 -0 0 0 -0 -0 -0 -0 -1 -1 -1 -1 -1 -2 -2 -3 -3 -4 -4 -4 -4 -4 -4 -5 -5 -6 -6 -6 -6 -6 -6 -6 -6 -6
1 1 1 1 0 0 0 -0 -0 -0 -0 -0 -1 -1 -1 -1 -1 -2 -2 -2 -2 -2 -3 -3 -3 -4 -5 -5 -5 -5 -5 -5 -5 -5 -6 -6 -6 -6 -6 -6 -6 -7 -7
1 0 0 0 0 -0 -0 -0 -0 -1 -1 -1 -1 -1 -2 -2 -2 -2 -2 -3 -3 -3 -3 -4 -4 -4 -5 -5 -5 -5 -5 -6 -5 -6 -6 -6 -6 -6 -6 -6 -6 -7 -7
0 0 0 0 -0 -0 -0 -0 -1 -1 -1 -1 -1 -2 -2 -2 -2 -3 -3 -3 -4 -4 -4 -4 -4 -5 -5 -5 -5 -6 -6 -6 -6 -6 -6 -6 -6 -6 -6 -6 -6 -7 -7
0 0 -0 -0 -0 -0 -0 -1 -1 -1 -1 -1 -2 -2 -2 -2 -3 -3 -3 -4 -4 -4 -4 -5 -5 -5 -5 -5 -6 -6 -6 -6 -6 -6 -6 -6 -6 -6 -6 -6 -6 -7 -7
0 -0 -0 -0 -0 -0 -1 -1 -1 -1 -1 -2 -2 -2 -2 -3 -3 -3 -3 -4 -4 -4 -5 -5 -5 -5 -6 -6 -6 -6 -6 -6 -6 -6 -6 -6 -6 -7 -7 -7 -7 -7 -6
0 -0 -0 -0 -0 -1 -1 -1 -1 -1 -1 -2 -2 -2 -2 -3 -3 -3 -4 -4 -4 -5 -5 -5 -5 -5 -6 -6 -6 -6 -7 -7 -7 -7 -7 -7 -7 -7 -7 -7 -7 -7 -7
0 0 -0 -0 -0 -1 -1 -1 -1 -1 -1 -2 -2 -2 -2 -3 -3 -3 -4 -4 -5 -5 -5 -5 -5 -6 -6 -6 -6 -7 -7 -7 -7 -7 -7 -7 -7 -7 -7 -7 -8 -8 -8
0 0 0 -0 -0 -0 -1 -1 -1 -1 -1 -2 -2 -2 -2 -3 -3 -4 -4 -4 -5 -5 -5 -5 -6 -6 -6 -7 -7 -7 -7 -7 -7 -7 -8 -8 -8 -8 -8 -8 -8 -8 -8
0 0 -0 -0 -0 -0 -1 -1 -1 -1 -1 -2 -2 -2 -3 -3 -3 -4 -4 -4 -5 -5 -5 -6 -6 -6 -7 -7 -7 -7 -7 -7 -7 -8 -8 -8 -8 -8 -9 -9 -9 -9 -9
0 0 -0 -0 -0 -1 -1 -1 -1 -1 -2 -2 -2 -2 -3 -3 -4 -4 -4 -4 -5 -5 -5 -6 -6 -6 -7 -7 -7 -7 -7 -7 -8 -8 -8 -8 -9 -9 -9 -9 -9 -9 -9
0 -0 -0 -0 -1 -1 -1 -1 -1 -1 -2 -2 -2 -2 -3 -3 -3 -4 -4 -5 -5 -5 -5 -6 -6 -7 -7 -7 -7 -8 -8 -8 -8 -8 -8 -9 -9 -9 -9 -9 -9 -9 -9
-0 -0 -0 -1 -1 -1 -1 -1 -1 -2 -2 -2 -2 -3 -3 -3 -3 -4 -4 -5 -5 -5 -5 -6 -6 -6 -7 -7 -7 -8 -8 -8 -8 -8 -9 -9 -9 -9 -9 -9 -9 -9 -9
-0 -0 -0 -1 -1 -1 -1 -1 -1 -2 -2 -2 -2 -3 -3 -3 -3 -4 -4 -5 -5 -5 -6 -6 -6 -6 -7 -7 -8 -8 -8 -8 -8 -9 -9 -9 -9 -9 -9 -9 -9 -9 -9
-0 -1 -1 -1 -1 -1 -1 -1 -2 -2 -2 -2 -3 -3 -3 -3 -4 -4 -4 -5 -5 -5 -6 -6 -6 -6 -7 -7 -8 -8 -8 -8 -8 -9 -9 -9 -9 -9 -9 -9 -9 -9 -9
-1 -1 -1 -1 -1 -1 -1 -1 -2 -2 -2 -2 -3 -3 -3 -3 -4 -4 -4 -5 -5 -5 -6 -6 -6 -6 -7 -7 -8 -8 -8 -8 -9 -9 -9 -9 -9 -9 -9 -9 -9 -9 -9
-1 -1 -1 -1 -1 -1 -2 -2 -2 -2 -2 -3 -3 -3 -3 -4 -4 -4 -5 -5 -5 -5 -6 -6 -6 -7 -7 -7 -8 -8 -8 -8 -9 -9 -9 -9 -9 -9 -9 -9 -9 -9 -9
-1 -1 -1 -2 -2 -2 -2 -2 -2 -2 -3 -3 -3 -3 -4 -4 -4 -4 -5 -5 -5 -5 -6 -6 -6 -7 -7 -7 -8 -8 -8 -8 -9 -9 -9 -9 -9 -9 -9 -9 -9 -9 -9
Wind_Speed
5 5 6 6 6 7 7 7 6 7 7 8 7 7 8 8 8 7 8 7 8 7 7 7 7 6 5 5 4 4 3 2 1 2 2 2 1 1 2 4 3 3 3
5 6 6 6 6 7 7 7 7 7 8 8 8 8 9 9 9 9 9 9 9 9 8 8 8 6 7 6 5 5 4 4 1 2 2 2 2 1 2 2 2 2 2
6 6 6 6 7 7 7 7 8 8 8 8 8 9 9 9 9 9 9 9 10 9 8 8 7 7 7 6 6 6 5 5 4 3 2 2 2 2 2 1 1 1 2
6 6 6 6 6 6 7 7 8 7 8 8 9 8 8 8 8 8 9 10 10 10 9 8 7 6 6 6 6 6 5 5 5 4 3 3 2 2 2 1 1 1 2
6 6 6 5 6 6 7 7 7 8 8 8 8 8 7 7 8 8 9 9 9 9 9 8 8 9 9 6 5 5 5 4 4 4 3 2 2 2 1 1 1 2 2
6 6 5 6 6 6 6 7 7 8 8 8 8 8 8 7 12 13 10 8 8 8 7 7 7 8 10 11 10 8 6 4 3 2 2 1 1 1 1 1 1 2 3
6 6 5 6 6 6 6 7 7 6 6 7 7 7 7 9 13 13 13 8 7 6 6 5 5 6 8 6 8 10 9 9 6 2 1 0 1 1 1 1 1 2 4
6 6 5 6 6 6 6 6 5 5 5 5 6 6 6 8 11 11 11 7 6 5 5 4 4 5 4 5 5 6 6 5 5 2 1 2 3 3 4 3 3 3 4
6 5 5 6 6 6 5 5 4 4 4 4 4 5 5 5 9 9 9 4 4 4 4 3 3 3 6 7 5 4 4 5 6 7 5 5 6 6 4 1 1 2 3
6 6 6 5 6 6 5 4 3 3 3 4 4 3 4 4 6 8 7 3 3 3 3 4 5 4 6 6 2 2 3 4 3 4 6 7 6 7 6 2 2 2 2
6 6 6 5 6 6 5 4 4 4 3 3 3 2 2 2 4 5 5 2 2 2 2 3 4 7 7 6 4 1 4 2 1 3 3 4 3 3 3 3 0 3 3
7 6 6 6 5 5 5 4 4 4 4 3 2 1 1 2 2 3 4 3 2 1 1 2 4 7 6 6 4 5 6 4 2 2 3 3 3 3 3 4 5 6 7
7 7 6 6 5 5 5 5 4 4 3 3 2 2 1 1 3 3 3 3 3 0 2 5 6 6 5 4 5 6 4 2 2 2 3 3 3 4 4 5 6 7 9
8 7 6 6 5 5 4 4 4 4 4 4 3 3 2 2 2 2 2 2 3 3 3 4 5 5 4 4 4 4 3 2 2 2 3 4 4 4 4 4 4 5 5
8 7 6 6 6 5 4 4 5 4 5 5 4 4 4 3 4 4 2 3 3 4 2 1 2 2 3 3 2 2 2 3 3 3 3 4 5 5 6 5 4 5 5
8 7 6 6 5 5 4 2 5 5 7 7 7 6 5 6 6 5 5 6 6 6 2 1 2 2 3 3 3 3 3 3 3 4 4 5 6 6 6 6 5 6 7
9 8 6 6 6 6 5 5 3 3 5 6 7 8 7 6 6 6 6 6 6 4 1 2 3 3 3 4 3 3 4 4 4 4 5 6 6 6 6 7 6 7 8
9 10 9 7 7 6 6 6 5 4 3 3 5 8 8 7 7 7 7 5 3 2 2 3 4 4 4 4 4 4 4 5 5 5 6 6 6 6 7 7 7 8 9
9 7 7 7 6 6 6 6 5 5 5 4 3 4 7 7 7 7 6 3 4 4 4 4 5 5 5 5 5 5 5 5 6 6 6 7 6 7 7 7 8 12 11
9 12 10 7 7 6 6 6 6 6 6 5 5 5 3 4 4 4 4 4 5 5 5 5 5 5 5 5 5 5 5 6 6 6 7 7 7 7 8 9 9 9 9
8 9 13 8 7 7 7 7 7 6 6 6 6 7 8 6 6 6 5 5 6 6 6 6 5 5 5 5 5 6 7 7 7 7 7 7 7 8 8 9 10 10 10
8 7 8 8 8 8 7 7 7 7 8 8 6 6 10 6 5 6 6 6 6 6 5 5 6 5 6 6 6 6 7 7 7 7 7 7 8 8 9 9 10 10 11
8 8 8 7 7 10 9 7 7 8 8 8 7 6 6 6 6 7 7 6 6 5 6 6 5 5 8 10 10 7 8 8 8 8 8 9 9 9 9 10 12 13 13
8 9 9 8 8 8 8 8 8 8 8 8 7 7 7 7 7 7 7 6 6 6 7 8 8 9 11 11 12 13 14 15 14 13 11 11 11 11 11 12 13 14 14
8 8 8 8 8 8 9 9 9 8 8 8 8 7 7 7 7 7 6 6 6 6 8 9 10 11 13 14 14 15 17 18 19 17 14 11 13 13 13 14 14 14 15
8 8 8 7 8 8 8 9 9 9 9 8 8 7 7 7 7 7 6 6 6 6 7 8 11 13 15 15 17 18 19 20 21 21 18 12 12 13 13 13 15 15 16
Wind_Direction
56 54 52 44 44 47 47 40 38 38 35 37 38 41 41 38 36 47 49 47 55 52 49 56 53 47 48 38 38 37 27 26 179 73 57 57 84 125 126 134 154 191 228
73 67 60 52 50 51 48 42 43 45 42 43 45 49 48 46 45 52 55 55 59 57 53 57 54 54 51 43 44 42 34 26 64 97 60 53 57 109 102 122 159 201 243
84 77 67 57 55 53 51 48 50 51 50 49 52 54 52 50 52 55 61 63 62 60 56 58 53 58 56 49 50 47 38 36 43 77 67 52 52 68 80 75 76 4 279
93 85 77 68 65 63 61 58 57 57 57 55 55 57 58 58 57 59 64 65 64 60 55 53 50 55 60 57 54 47 47 47 49 62 61 49 45 51 68 54 2 344 298
104 95 90 82 77 74 70 65 61 61 61 56 57 55 55 64 67 68 66 68 66 62 53 45 47 56 60 62 64 55 52 50 47 52 50 39 28 30 26 11 335 328 303
114 107 102 94 88 82 77 73 69 65 61 59 57 55 54 62 72 75 77 68 65 63 56 44 43 44 46 47 52 52 51 57 53 52 40 32 349 336 345 359 5 4 317
121 119 115 109 101 91 87 80 74 69 68 63 57 55 54 61 70 74 75 72 65 60 55 46 43 36 38 34 37 36 31 35 44 94 106 281 279 268 252 294 264 243 256
132 129 124 118 111 103 95 91 83 76 74 72 63 55 52 59 69 74 78 69 63 56 53 53 47 14 13 50 42 27 16 10 10 34 203 240 243 242 226 226 238 261 267
144 142 136 133 127 122 115 111 105 98 89 80 72 63 54 46 66 74 79 66 56 41 30 33 37 5 9 29 46 23 5 348 358 0 351 334 326 319 298 228 277 308 304
154 148 142 139 138 137 135 130 120 116 111 100 83 66 54 29 61 73 82 76 59 35 16 6 6 3 2 9 54 16 334 314 328 343 349 352 354 352 359 29 181 202 260
148 142 141 142 145 143 139 138 135 126 118 109 97 56 29 24 40 55 71 98 84 53 20 349 329 341 348 348 358 297 295 326 360 339 332 333 341 348 354 357 225 189 218
146 146 147 150 151 145 141 143 141 137 132 130 125 92 355 352 9 23 35 50 101 111 321 294 297 324 339 345 343 320 335 6 4 333 331 328 328 324 318 315 299 271 249
151 154 155 150 146 147 151 153 147 149 154 164 170 192 256 308 332 360 11 5 8 34 279 312 327 340 354 350 339 347 8 9 333 323 316 306 298 294 302 307 300 290 277
161 164 163 158 155 154 158 162 164 171 175 182 193 205 224 252 271 278 292 314 324 319 307 322 343 354 5 353 353 358 353 316 302 288 293 294 299 305 307 307 304 309 300
170 172 172 171 167 168 172 184 185 199 193 191 200 200 202 231 248 255 251 247 257 263 278 314 347 345 345 338 332 327 328 335 336 314 303 306 308 309 307 306 298 300 290
177 180 179 175 174 174 174 189 217 209 216 215 208 205 221 237 253 267 281 289 297 301 309 284 293 296 295 300 307 311 311 310 308 303 299 297 298 299 299 297 291 289 290
184 183 181 180 180 183 183 183 197 233 237 233 229 229 234 245 253 267 276 283 292 309 295 265 267 271 275 278 278 279 286 292 293 289 289 291 291 290 291 292 292 289 287
186 188 186 187 187 189 192 194 194 200 220 250 248 244 243 245 254 266 272 274 278 281 247 254 261 264 265 266 269 274 280 286 284 283 283 283 282 283 285 284 284 283 286
188 189 189 187 189 192 193 195 200 208 216 226 239 256 247 248 255 263 269 238 243 255 254 254 255 257 259 259 262 266 271 276 278 280 278 277 276 277 278 276 279 284 287
196 197 189 188 191 194 196 201 206 212 219 224 229 232 231 230 239 250 246 239 243 250 251 253 254 253 252 253 256 260 266 269 273 275 275 275 273 272 274 277 279 280 280
194 197 195 194 199 200 202 207 210 212 220 228 232 232 227 220 230 237 241 242 242 247 249 251 252 252 250 250 251 255 260 265 265 267 271 272 272 273 273 275 277 278 279
192 195 195 200 203 206 209 209 210 216 223 231 237 240 245 235 231 238 241 245 243 241 239 243 248 247 243 243 246 252 258 262 263 263 266 268 268 272 273 274 276 277 279
194 197 201 205 207 214 216 212 214 219 225 229 233 233 235 234 236 239 243 246 246 246 249 245 247 251 254 251 247 242 251 258 260 260 265 270 270 270 271 272 273 275 276
199 203 207 209 209 213 215 217 218 222 226 229 231 233 234 235 239 242 243 245 245 250 253 251 251 253 259 263 261 256 255 260 263 261 256 260 265 268 269 269 270 271 273
204 208 211 212 213 216 219 221 222 224 227 229 230 233 234 234 238 242 243 243 245 250 255 257 257 259 262 265 267 268 271 273 273 268 262 259 261 262 265 268 270 273 273
209 213 216 215 216 217 220 222 223 223 226 230 231 232 233 235 239 242 243 243 247 251 256 261 259 262 267 271 274 277 279 280 280 280 277 271 269 269 269 271 272 272 275
Height
1498 1497 1496 1495 1495 1494 1493 1492 1492 1491 1490 1489 1488 1487 1486 1486 1485 1484 1483 1482 1481 1481 1480 1479 1479 1478 1478 1477 1476 1475 1475 1474 1473 1472 1471 1471 1472 1472 1473 1474 1475 1477 1478
1495 1494 1494 1493 1492 1491 1490 1489 1489 1488 1487 1486 1485 1484 1484 1483 1482 1481 1480 1479 1478 1477 1477 1476 1476 1475 1475 1474 1473 1472 1471 1471 1470 1469 1469 1469 1469 1470 1470 1471 1472 1472 1473
1493 1492 1491 1491 1490 1489 1488 1487 1486 1486 1485 1484 1483 1482 1481 1481 1480 1479 1478 1477 1476 1475 1475 1475 1474 1473 1473 1472 1471 1470 1469 1468 1468 1468 1467 1467 1467 1468 1468 1469 1469 1469 1469
1491 1490 1490 1489 1488 1487 1486 1486 1485 1484 1484 1483 1482 1481 1480 1479 1479 1478 1477 1476 1475 1475 1474 1474 1473 1472 1471 1470 1469 1468 1468 1467 1466 1466 1466 1466 1466 1466 1466 1466 1466 1466 1466
1488 1488 1488 1487 1487 1486 1485 1485 1484 1484 1483 1482 1481 1481 1480 1479 1478 1477 1476 1476 1475 1474 1474 1473 1472 1471 1470 1469 1469 1468 1467 1466 1465 1465 1464 1464 1464 1464 1464 1463 1463 1462 1462
1487 1486 1486 1486 1486 1485 1485 1485 1484 1484 1483 1483 1482 1481 1480 1479 1478 1477 1476 1476 1475 1474 1474 1473 1472 1471 1470 1469 1467 1467 1466 1465 1464 1464 1463 1463 1463 1462 1461 1461 1460 1459 1459
1485 1485 1485 1485 1485 1485 1485 1485 1484 1484 1483 1483 1482 1481 1480 1479 1478 1477 1477 1476 1475 1474 1473 1472 1471 1470 1469 1468 1467 1466 1465 1464 1464 1463 1462 1461 1461 1460 1459 1459 1458 1457 1456
1483 1483 1484 1484 1484 1485 1485 1485 1485 1484 1484 1484 1483 1482 1481 1480 1479 1478 1477 1476 1475 1474 1473 1472 1471 1469 1468 1467 1466 1465 1464 1463 1462 1461 1460 1459 1459 1458 1457 1457 1455 1454 1454
1482 1482 1483 1484 1484 1484 1484 1485 1485 1485 1484 1484 1483 1482 1481 1480 1479 1478 1477 1476 1475 1474 1473 1471 1470 1469 1467 1466 1465 1463 1462 1461 1460 1459 1459 1458 1457 1456 1455 1454 1453 1452 1450
1481 1481 1482 1483 1483 1484 1484 1485 1485 1485 1485 1484 1483 1483 1482 1480 1479 1478 1477 1476 1475 1473 1472 1471 1469 1468 1467 1465 1464 1462 1461 1460 1459 1458 1457 1456 1455 1454 1453 1452 1451 1449 1448
1479 1480 1481 1482 1483 1484 1484 1485 1485 1485 1484 1484 1483 1482 1482 1480 1479 1478 1477 1475 1474 1472 1471 1470 1468 1467 1466 1464 1463 1461 1460 1459 1457 1456 1455 1454 1453 1452 1450 1449 1448 1447 1445
1478 1479 1480 1481 1482 1483 1484 1484 1484 1484 1484 1483 1483 1482 1481 1480 1479 1477 1476 1474 1473 1471 1470 1468 1467 1466 1464 1463 1462 1460 1459 1457 1456 1454 1453 1452 1450 1449 1448 1446 1445 1443 1441
1477 1478 1479 1480 1481 1482 1483 1483 1483 1483 1483 1482 1482 1481 1480 1479 1478 1476 1475 1473 1471 1470 1469 1467 1466 1464 1463 1462 1460 1459 1457 1455 1454 1452 1451 1449 1448 1446 1444 1443 1441 1439 1437
1475 1476 1477 1479 1480 1481 1481 1482 1482 1482 1481 1481 1480 1479 1478 1477 1476 1475 1473 1472 1470 1469 1467 1465 1464 1463 1461 1460 1458 1457 1455 1453 1451 1450 1448 1446 1444 1442 1441 1438 1436 1434 1432
1472 1474 1475 1477 1478 1479 1480 1480 1480 1480 1480 1480 1479 1478 1477 1475 1474 1473 1471 1470 1468 1467 1465 1464 1462 1461 1459 1458 1456 1454 1452 1450 1449 1447 1445 1443 1441 1439 1437 1435 1432 1430 1427
1470 1471 1473 1475 1476 1477 1478 1478 1478 1478 1478 1477 1476 1476 1474 1473 1472 1470 1469 1467 1466 1464 1463 1461 1459 1458 1456 1454 1453 1451 1449 1447 1445 1443 1441 1439 1437 1435 1433 1431 1428 1426 1423
1467 1469 1470 1472 1473 1474 1475 1475 1476 1476 1475 1474 1474 1473 1472 1471 1469 1468 1466 1465 1463 1461 1460 1458 1456 1455 1453 1451 1449 1447 1446 1444 1442 1439 1437 1435 1433 1431 1428 1426 1424 1421 1419
1464 1466 1467 1469 1470 1471 1472 1473 1473 1472 1472 1471 1471 1470 1469 1467 1466 1465 1463 1462 1460 1458 1456 1455 1453 1451 1449 1447 1445 1443 1441 1440 1438 1435 1433 1431 1429 1426 1424 1422 1419 1417 1414
1460 1462 1464 1465 1467 1468 1469 1469 1469 1469 1469 1468 1468 1467 1466 1464 1463 1461 1460 1458 1456 1455 1453 1451 1449 1447 1445 1443 1441 1439 1437 1435 1433 1431 1429 1427 1424 1422 1419 1417 1414 1412 1409
1456 1458 1459 1461 1462 1463 1464 1465 1465 1465 1465 1464 1463 1463 1462 1460 1459 1457 1456 1454 1452 1450 1449 1447 1445 1443 1441 1439 1436 1434 1432 1430 1428 1426 1424 1422 1419 1417 1414 1412 1409 1406 1403
1451 1453 1454 1456 1457 1458 1459 1460 1460 1460 1460 1459 1459 1458 1457 1456 1454 1453 1451 1450 1448 1446 1444 1442 1440 1438 1436 1434 1432 1429 1427 1425 1423 1421 1419 1416 1414 1412 1409 1406 1403 1401 1397
1445 1447 1449 1450 1452 1453 1453 1454 1455 1455 1455 1454 1454 1454 1452 1451 1449 1448 1447 1445 1443 1441 1439 1437 1435 1433 1431 1429 1426 1424 1422 1420 1418 1416 1413 1411 1408 1406 1403 1400 1397 1394 1391
1440 1441 1443 1444 1446 1447 1448 1448 1448 1449 1449 1449 1448 1448 1447 1445 1444 1443 1441 1440 1438 1436 1434 1432 1430 1428 1426 1423 1421 1419 1416 1414 1412 1410 1407 1405 1402 1400 1397 1394 1391 1388 1385
1434 1435 1437 1438 1439 1440 1441 1441 1442 1442 1442 1442 1442 1442 1441 1440 1438 1437 1436 1434 1432 1430 1428 1426 1424 1422 1420 1417 1415 1413 1410 1408 1406 1404 1401 1398 1396 1393 1390 1387 1384 1381 1378
1427 1429 1430 1431 1432 1433 1434 1434 1435 1435 1436 1436 1435 1435 1434 1434 1432 1431 1430 1428 1426 1424 1422 1420 1418 1416 1413 1411 1409 1407 1404 1402 1400 1397 1395 1392 1389 1386 1383 1380 1377 1374 1370
1421 1422 1423 1425 1425 1426 1427 1427 1428 1428 1429 1429 1429 1428 1428 1427 1426 1425 1424 1422 1420 1418 1416 1414 1412 1409 1407 1405 1403 1400 1398 1395 1393 1391 1389 1386 1382 1379 1377 1373 1370 1366 1363